Hourly Data Report for September 02, 2017

All times are specified in Local Standard Time (LST). Add 1 hour to adjust for Daylight Saving Time where and when it is observed.

NORTH CAPE
PRINCE EDWARD ISLAND

47°03'29.000" N
63°59'55.000" W
7.60 m
8300516
71987
WNE

Download Data

Hourly Data (September 2017)
Hourly Data Report for September 2, 2017
Temp Definition
°C
Dew Point Temp Definition
°C
Rel Hum Definition
%
Wind Dir Definition
10's deg

Wind Spd Definition
km/h
Visibility Definition
km
Stn Press Definition
kPa
Hmdx Definition


Wind Chill Definition


Weather Definition


TIME
00:00 12.7 8.4 75 33 36   100.71     LegendNANA
01:00 12.4 8.5 77 33 35   100.75     LegendNANA
02:00 11.5 8.8 84 33 32   100.84     LegendNANA
03:00 12.0 8.6 80 30 43   100.90     LegendNANA
04:00 11.0 8.2 83 30 43   100.97     LegendNANA
05:00 12.0 7.0 71 31 41   101.03     LegendNANA
06:00 11.4 7.7 78 31 41   101.11     LegendNANA
07:00 11.7 5.8 67 33 39   101.22     LegendNANA
08:00 12.2 7.1 71 32 38   101.32     LegendNANA
09:00 12.0 6.4 68 33 33   101.41     LegendNANA
10:00 12.3 7.0 71 32 37   101.46     LegendNANA
11:00 12.2 6.9 70 31 32   101.52     LegendNANA
12:00 12.9 7.6 70 31 31   101.56     LegendNANA
13:00 13.8 7.6 66 32 27   101.61     LegendNANA
14:00 14.4 8.3 67 30 24   101.64     LegendNANA
15:00 14.9 8.7 66 28 20   101.70     LegendNANA
16:00 15.4 8.5 64 27 18   101.71     LegendNANA
17:00 15.5 9.4 67 26 15   101.77     LegendNANA
18:00 15.5 9.2 66 28 9   101.83     LegendNANA
19:00 15.0 9.1 68 26 8   101.92     LegendNANA
20:00 14.8 8.8 67 35 5   102.01     LegendNANA
21:00 13.5 10.2 81 8 12   102.07     LegendNANA
22:00 13.1 9.7 80 9 13   102.11     LegendNANA
23:00 13.3 9.9 80 10 12   102.14     LegendNANA

Notes on Data Quality.

Legend

  • E = Estimated
  • M = Missing
  • NA = Not Available
  • ‡ = Partner data that is not subject to review by the National Climate Archives
Date modified: